Lagomarcino's Cocoa Beano 5K

5K

Summary

Number of finishers:
2,661
Number of females:
2,030
Number of males:
625
Average time:
43:04

Info

October 29, 2016 in Davenport, IA

Races

Results By

5K - Results

Leaderboard
Charts and Stats
Select division:

displaying: 1 - 40 of 40
number of records per page: [10] [25] [all]

    NO FN LN DIVISION OVERALL DIVPL SEXPL TIME PACE
1760 Mollie Regal F3034 2617 269/275 1997/2030 1:06:10 21:21
2476 Abagail Berry F1519 2618 63/63 1998/2030 1:06:14 21:22
262 Erik Shewmaker M3034 2619 58/59 615/625 1:06:51 21:34
261 Mary Tjarks F5559 2620 187/192 1999/2030 1:06:51 21:34
1824 Samantha Bulens F3034 2621 270/275 2000/2030 1:07:03 21:38
498 Victoria Haacke F3034 2622 271/275 2001/2030 1:07:03 21:38
803 Marlece Edler F6064 2623 97/99 2002/2030 1:07:04 21:38
1822 Mary Bulens F6064 2624 98/99 2003/2030 1:07:05 21:39
2107 Elizabeth Kempnich F3034 2625 272/275 2004/2030 1:07:06 21:39
488 Elizabeth Zimmerman F3034 2626 273/275 2005/2030 1:07:09 21:40
1823 Pamela Eastwood F3034 2627 274/275 2006/2030 1:07:13 21:41
773 Dawn Saul F5559 2628 188/192 2007/2030 1:07:27 21:46
2248 Celeste Miller F5054 2629 216/216 2008/2030 1:07:28 21:46
955 Roman Sprosty M0114 2630 71/71 616/625 1:07:45 21:52
954 Donald Sprosty M5559 2631 46/46 617/625 1:07:49 21:53
953 Natalie Sprosty F5559 2632 189/192 2009/2030 1:07:50 21:53
2475 Steve Hook M4549 2633 56/56 618/625 1:08:09 21:59
2474 Ericka Stemple F4549 2634 221/222 2010/2030 1:08:10 22:00
2473 Jennifer Hook F4044 2635 175/177 2011/2030 1:08:10 22:00
552 Penny Meyer F5559 2636 190/192 2012/2030 1:08:23 22:04
554 Lori Lucier F5559 2637 191/192 2013/2030 1:08:24 22:04
913 Robert Walker M3539 2638 79/79 619/625 1:08:26 22:05
553 Stacy Lucier F2529 2639 230/232 2014/2030 1:08:27 22:05
892 Richard Parsons M7074 2640 8/8 620/625 1:08:38 22:09
1762 Heather Lynch F4044 2641 176/177 2015/2030 1:08:45 22:11
893 Gail Parsons F6569 2642 58/58 2016/2030 1:08:55 22:14
2938 Cassy Dewitt F2529 2643 231/232 2017/2030 1:09:09 22:19
2931 Chelsie Booker F2529 2644 232/232 2018/2030 1:09:10 22:19
2729 Katherine Kargl F3034 2645 275/275 2019/2030 1:09:41 22:29
2746 Jennifer Kargl F4044 2646 177/177 2020/2030 1:09:48 22:31
1542 Sue Roberts F7074 2647 18/19 2021/2030 1:10:00 22:35
1540 Helene Roberts F3539 2648 252/254 2022/2030 1:10:00 22:35
1541 Sierra Roberts F2024 2649 106/107 2023/2030 1:10:01 22:36
2132 Rosemary Dreessen F7074 2650 19/19 2024/2030 1:10:52 22:52
1460 Darrell Norton M5054 2651 61/61 621/625 1:11:12 22:58
884 John Manley-Buser M6064 2652 34/34 622/625 1:12:50 23:30
882 Katie Manley-Buser F6064 2653 99/99 2025/2030 1:12:51 23:30
2788 Jack Kettering M80UP 2654 2/2 623/625 1:15:25 24:20
644 Heidi Cornwell F2024 2655 107/107 2026/2030 1:17:08 24:53
    NO FN LN DIVISION OVERALL DIVPL SEXPL TIME PACE
632 James Edwards M3034 2656 59/59 624/625 1:17:08 24:53

  • share - click this icon in the results above to share via Facebook, Twitter, email, and more
  • print - click this icon in the results above for a printable page
  • radius - click this icon in the results above to show finishers before and after